Home   Weather   Sosnowiec   Past weeks

Flag for Poland Past Weather in Sosnowiec, Poland — Yesterday and Last 2 Weeks

Now
75 °F

Sunny.


Feels Like: 78 °F
Forecast: 58 / 80 °F
Wind: 20 mph from West

Location: Katowice Airport

Current Time: Jun 26, 2017 at 3:52:35 pm

Latest Report: Jun 26, 2017 at 3:00 pm


Visibility: 10 mi

Pressure: 29.86 "Hg

Humidity: 41%

Dew Point: 50 °F

Location of SosnowiecLocation

Past Weather in Sosnowiec — Graph

°F

Sosnowiec Temperature Yesterday

Maximum temperature yesterday: 84 °F (at 3:30 pm)
Minimum temperature yesterday: 52 °F (at 4:30 am)
Average temperature yesterday: 69 °F

High & Low Weather Summary for the Past Weeks

 TemperatureHumidityPressure
High86 °F (Jun 20, 2:30 pm)100% (Jun 15, 2:00 am)30.24 "Hg (Jun 15, 2:00 am)
Low39 °F (Jun 15, 5:00 am)26% (Jun 22, 1:00 pm)29.74 "Hg (Jun 23, 6:30 am)
Average64 °F68%29.99 "Hg
* Reported Jun 11 2:00 pm — Jun 26 2:30 pm, Sosnowiec. Weather by CustomWeather, © 2017

Note: Actual official high and low records may vary slightly from our data, if they occured in-between our weather recording intervals... More about our weather records

Advertising

Sosnowiec Weather History for the Previous 24 Hours

Scroll right to see more
 ConditionsComfort  
Time TempWeatherWind HumidityBarometerVisibility
2:30 pm
Mon, Jun 26
75 °FPassing clouds.16 mph41%29.86 "HgN/A
2:00 pm75 °FPassing clouds.10 mph44%29.86 "HgN/A
1:30 pm73 °FPassing clouds.14 mph53%29.86 "HgN/A
1:00 pm73 °FPassing clouds.14 mph53%29.86 "HgN/A
12:30 pm72 °FSprinkles. Broken clouds.13 mph57%29.86 "HgN/A
12:00 pm73 °FScattered clouds.12 mph50%29.86 "HgN/A
11:30 am73 °FScattered clouds.13 mph53%29.86 "HgN/A
11:00 am75 °FScattered clouds.13 mph54%29.86 "HgN/A
10:30 am72 °FPassing clouds.9 mph57%29.86 "HgN/A
10:00 am70 °FPassing clouds.9 mph64%29.86 "HgN/A
9:30 am68 °FScattered clouds.7 mph69%29.86 "HgN/A
9:00 am68 °FScattered clouds.8 mph64%29.86 "HgN/A
8:30 am68 °FPassing clouds.7 mph69%29.86 "HgN/A
8:00 am66 °FPassing clouds.6 mph73%29.89 "HgN/A
7:30 am66 °FSunny.7 mph73%29.89 "Hg10 mi
7:00 am66 °FSunny.7 mph73%29.86 "Hg10 mi
6:30 am64 °FPassing clouds.5 mph78%29.86 "HgN/A
6:00 am59 °FSunny.2 mph88%29.86 "Hg10 mi
5:30 am57 °FSunny.2 mph94%29.89 "Hg10 mi
5:00 am57 °FSunny.5 mph94%29.89 "Hg10 mi
4:30 am55 °FClear.7 mph94%29.89 "Hg10 mi
4:00 am59 °FClear.3 mph88%29.86 "Hg10 mi
3:30 am59 °FClear.1 mph88%29.86 "Hg10 mi
3:00 am61 °FClear.1 mph83%29.89 "Hg10 mi
2:30 am63 °FClear.5 mph77%29.89 "Hg10 mi
2:00 am63 °FClear.7 mph77%29.89 "Hg10 mi
1:30 am64 °FPassing clouds.7 mph78%29.89 "HgN/A
1:00 am64 °FPassing clouds.3 mph78%29.86 "HgN/A
12:30 am64 °FClear.5 mph78%29.86 "Hg10 mi
12:00 am66 °FClear.7 mph73%29.86 "Hg10 mi
11:30 pm
Sun, Jun 25
66 °FClear.6 mph68%29.86 "Hg10 mi
11:00 pm68 °FClear.8 mph64%29.86 "Hg10 mi
10:30 pm66 °FClear.7 mph68%29.86 "Hg10 mi
10:00 pm72 °FClear.6 mph57%29.83 "Hg10 mi
9:30 pm73 °FClear.6 mph53%29.83 "Hg10 mi
9:00 pm73 °FClear.7 mph53%29.83 "Hg10 mi
8:30 pm75 °FSunny.9 mph50%29.83 "Hg10 mi
8:00 pm75 °FSunny.9 mph47%29.83 "Hg10 mi
7:30 pm77 °FSunny.10 mph44%29.83 "Hg10 mi
7:00 pm77 °FSunny.13 mph44%29.83 "Hg10 mi
6:30 pm77 °FSunny.10 mph44%29.83 "Hg10 mi
6:00 pm77 °FSunny.12 mph44%29.83 "Hg10 mi
5:30 pm77 °FSunny.15 mph42%29.83 "Hg10 mi
5:00 pm79 °FSunny.15 mph39%29.83 "Hg10 mi
4:30 pm81 °FSunny.16 mph34%29.83 "Hg10 mi
4:00 pm81 °FSunny.18 mph37%29.83 "Hg10 mi
3:30 pm84 °FSunny.18 mph31%29.83 "Hg10 mi
3:00 pm81 °FSunny.16 mph34%29.83 "Hg10 mi
Weather by CustomWeather, © 2017

See weather overviewHow to use our weather pages